GW4668 Weather Reports


time (UTC)temp
C
wind
direction
speed
KPH
gust
KPH
rain 1hr
cm
rain 24hr
cm
rain mn
cm
humidity
%
barometer
mb
20260506160004 28 150 0.0 3.2 0.00 0.00 0.00 82 1008.9
20260506155503 28 83 3.2 6.4 0.00 0.00 0.00 82 1008.7
20260506153634 28 99 3.2 4.8 0.00 0.00 0.00 83 1008.8
20260506153131 28 47 6.4 14.5 0.00 0.00 0.00 82 1008.9
20260506152628 28 89 4.8 16.1 0.00 0.00 0.00 82 1008.8
20260506152126 28 49 4.8 12.9 0.00 0.00 0.00 82 1008.9
20260506151624 28 56 3.2 9.7 0.00 0.00 0.00 82 1008.8
20260506151121 28 79 6.4 12.9 0.00 0.00 0.00 81 1008.8
20260506150617 28 60 9.7 12.9 0.00 0.00 0.00 81 1008.6
20260506150114 28 115 6.4 12.9 0.00 0.00 0.00 81 1008.8
20260506145611 28 88 6.4 6.4 0.00 0.00 0.00 81 1008.8
20260506145108 28 113 9.7 11.3 0.00 0.00 0.00 81 1008.8
20260506144605 28 57 3.2 11.3 0.00 0.00 0.00 81 1008.8
20260506144102 28 100 1.6 4.8 0.00 0.00 0.00 81 1008.6
20260506143600 28 101 6.4 11.3 0.00 0.00 0.00 81 1008.8
20260506143058 28 67 3.2 9.7 0.00 0.00 0.00 81 1009.0
20260506142555 28 55 1.6 4.8 0.00 0.00 0.00 81 1008.9
20260506142053 28 28 0.0 4.8 0.00 0.00 0.00 82 1009.0
20260506141551 28 81 6.4 9.7 0.00 0.00 0.00 82 1009.1
20260506141049 28 40 3.2 4.8 0.00 0.00 0.00 82 1009.0
20260506140546 28 31 4.8 6.4 0.00 0.00 0.00 83 1009.0
20260506140044 28 64 1.6 4.8 0.00 0.00 0.00 83 1009.2
20260506135540 28 14 0.0 4.8 0.00 0.00 0.00 83 1009.1
20260506135036 27 58 1.6 4.8 0.00 0.00 0.00 83 1009.2
20260506134533 27 22 6.4 9.7 0.00 0.00 0.00 83 1009.2
20260506134029 27 57 3.2 11.3 0.00 0.00 0.00 83 1009.0
20260506133526 27 56 4.8 6.4 0.00 0.00 0.00 83 1009.2
20260506133023 27 52 1.6 12.9 0.00 0.00 0.00 84 1009.1
20260506132520 27 80 4.8 6.4 0.00 0.00 0.00 84 1009.2
20260506132018 27 41 6.4 9.7 0.00 0.00 0.00 84 1009.2
20260506131514 27 29 3.2 11.3 0.00 0.00 0.00 84 1009.1
20260506131011 27 33 3.2 4.8 0.00 0.00 0.00 83 1009.1
20260506130508 28 1 4.8 9.7 0.00 0.00 0.00 83 1009.0
20260506130006 28 1 3.2 4.8 0.00 0.00 0.00 83 1009.3
20260506125504 28 24 0.0 6.4 0.00 0.00 0.00 83 1009.1
20260506125001 28 10 9.7 11.3 0.00 0.00 0.00 83 1009.0
20260506124458 28 2 3.2 9.7 0.00 0.00 0.00 83 1009.1
20260506123956 28 351 8.0 11.3 0.00 0.00 0.00 83 1009.1
20260506123454 28 338 6.4 11.3 0.00 0.00 0.00 82 1009.1
20260506122951 28 353 4.8 9.7 0.00 0.00 0.00 82 1009.0
20260506122448 28 40 3.2 9.7 0.00 0.00 0.00 82 1009.0
20260506121946 28 50 6.4 6.4 0.00 0.00 0.00 82 1009.3
20260506121443 28 31 3.2 9.7 0.00 0.00 0.00 83 1009.0
20260506120940 27 341 3.2 6.4 0.00 0.00 0.00 83 1008.9
20260506120437 27 38 1.6 6.4 0.00 0.00 0.00 83 1008.8
20260506115935 27 43 4.8 11.3 0.00 0.00 0.00 84 1008.8
20260506115433 27 40 4.8 9.7 0.00 0.00 0.00 85 1008.6
20260506114930 27 31 8.0 14.5 0.00 0.00 0.00 85 1008.6
20260506114428 27 31 6.4 9.7 0.00 0.00 0.00 85 1008.4
20260506113927 27 50 4.8 6.4 0.00 0.00 0.00 85 1008.3
20260506113425 27 15 6.4 12.9 0.00 0.00 0.00 85 1008.4
20260506112921 27 51 3.2 4.8 0.00 0.00 0.00 85 1008.3
20260506112419 27 348 4.8 9.7 0.00 0.00 0.00 85 1008.3
20260506111915 27 42 9.7 14.5 0.00 0.00 0.00 86 1008.3
20260506111414 27 18 3.2 12.9 0.00 0.00 0.00 86 1008.1
20260506110910 27 0 12.9 12.9 0.00 0.00 0.00 86 1008.4
20260506110408 27 42 9.7 12.9 0.00 0.00 0.00 86 1008.2
20260506105904 27 1 6.4 14.5 0.00 0.00 0.00 86 1008.3
20260506105400 27 270 16.1 22.5 0.00 0.00 0.00 86 1008.2
20260506104858 28 358 12.9 20.9 0.00 0.00 0.00 85 1008.1
20260506104355 28 0 9.7 16.1 0.00 0.00 0.00 85 1008.2
20260506103853 28 343 9.7 14.5 0.00 0.00 0.00 85 1008.2
20260506103350 28 325 11.3 16.1 0.00 0.00 0.00 84 1008.0
20260506102847 28 354 8.0 14.5 0.00 0.00 0.00 84 1007.9
20260506102345 28 336 11.3 14.5 0.00 0.00 0.00 84 1008.1
20260506101842 28 323 4.8 14.5 0.00 0.00 0.00 84 1007.8
20260506101338 29 339 14.5 17.7 0.00 0.00 0.00 83 1007.9
20260506100836 30 318 9.7 11.3 0.00 0.00 0.00 80 1007.6
20260506100335 30 341 3.2 4.8 0.00 0.00 0.00 77 1007.4
20260506095833 30 336 0.0 1.6 0.00 0.00 0.00 76 1007.3
20260506095329 30 128 3.2 4.8 0.00 0.00 0.00 76 1007.2
20260506094826 30 113 6.4 6.4 0.00 0.00 0.00 76 1006.9
20260506094325 30 153 1.6 3.2 0.00 0.00 0.00 76 1007.1
20260506093823 30 46 1.6 3.2 0.00 0.00 0.00 77 1007.0
20260506093319 30 315 0.0 1.6 0.00 0.00 0.00 77 1007.0
20260506092818 30 171 1.6 6.4 0.00 0.00 0.00 77 1006.8
20260506092315 30 185 3.2 6.4 0.00 0.00 0.00 77 1007.0
20260506091812 30 173 4.8 6.4 0.00 0.00 0.00 77 1007.1
20260506091309 30 310 1.6 3.2 0.00 0.00 0.00 76 1007.1
20260506090807 30 192 1.6 4.8 0.00 0.00 0.00 76 1006.9
20260506090304 30 179 3.2 6.4 0.00 0.00 0.00 76 1006.8
20260506085800 30 150 3.2 4.8 0.00 0.00 0.00 76 1006.8
20260506085257 30 296 0.0 4.8 0.00 0.00 0.00 75 1006.8
20260506084754 31 306 3.2 3.2 0.00 0.00 0.00 74 1007.0
20260506084250 31 250 1.6 9.7 0.00 0.00 0.00 73 1007.2
20260506083747 31 174 1.6 6.4 0.00 0.00 0.00 72 1006.8
20260506083245 30 199 9.7 11.3 0.00 0.00 0.00 73 1006.9
20260506082742 30 295 0.0 6.4 0.00 0.00 0.00 74 1006.9
20260506082237 30 249 3.2 9.7 0.00 0.00 0.00 74 1006.9
20260506081735 30 240 6.4 12.9 0.00 0.00 0.00 74 1007.1
20260506081232 31 198 6.4 14.5 0.00 0.00 0.00 73 1006.9
20260506080731 32 157 8.0 20.9 0.00 0.00 0.00 70 1006.7
20260506080227 32 161 14.5 22.5 0.00 0.00 0.00 67 1006.7
20260506073211 33 180 6.4 9.7 0.00 0.00 0.00 66 1006.6
20260506072707 33 157 3.2 11.3 0.00 0.00 0.00 67 1006.7
20260506072205 32 119 6.4 11.3 0.00 0.00 0.00 67 1006.7
20260506071702 32 97 6.4 12.9 0.00 0.00 0.00 67 1006.7
20260506071200 32 138 6.4 14.5 0.00 0.00 0.00 68 1006.8
20260506070657 32 94 6.4 12.9 0.00 0.00 0.00 68 1006.9
20260506070154 32 150 8.0 16.1 0.00 0.00 0.00 68 1006.7
20260506062131 34 344 0.0 4.8 0.00 0.00 0.00 60 1007.4
20260506061627 35 325 1.6 4.8 0.00 0.00 0.00 60 1007.3
20260506061125 34 2 9.7 11.3 0.00 0.00 0.00 61 1007.4
20260506060623 34 353 12.9 17.7 0.00 0.00 0.00 62 1007.7
20260506060120 35 321 6.4 12.9 0.00 0.00 0.00 61 1007.4
20260506051051 33 51 3.2 6.4 0.00 0.00 0.00 62 1008.8
20260506050549 33 1 12.9 16.1 0.00 0.00 0.00 62 1008.9
20260506045040 33 3 12.9 16.1 0.00 0.00 0.00 63 1009.2
20260506044538 33 114 4.8 11.3 0.00 0.00 0.00 64 1009.5
20260506044034 33 84 6.4 9.7 0.00 0.00 0.00 62 1009.5
20260506043531 33 16 4.8 14.5 0.00 0.00 0.00 63 1009.9
20260506043030 32 322 3.2 6.4 0.00 0.00 0.00 65 1009.6
20260506042529 33 59 9.7 12.9 0.00 0.00 0.00 65 1009.9
20260506042026 33 332 3.2 4.8 0.00 0.00 0.00 65 1009.9
20260506041525 33 40 6.4 9.7 0.00 0.00 0.00 65 1009.9
20260506041021 32 29 3.2 14.5 0.00 0.00 0.00 67 1010.0
20260506040519 32 55 12.9 14.5 0.00 0.00 0.00 68 1010.2
20260506040015 32 18 8.0 11.3 0.00 0.00 0.00 69 1010.2
20260506035512 32 9 1.6 12.9 0.00 0.00 0.00 68 1010.2
20260506035008 32 246 1.6 3.2 0.00 0.00 0.00 68 1010.3
20260506034506 32 26 8.0 11.3 0.00 0.00 0.00 70 1010.2
20260506034003 32 59 4.8 11.3 0.00 0.00 0.00 70 1010.3
20260506033500 32 117 3.2 12.9 0.00 0.00 0.00 70 1010.4
20260506032956 32 33 3.2 11.3 0.00 0.00 0.00 70 1010.4
20260506032454 32 105 4.8 11.3 0.00 0.00 0.00 71 1010.2
20260506031950 31 98 9.7 17.7 0.00 0.00 0.00 72 1010.4
20260506031448 31 53 6.4 12.9 0.00 0.00 0.00 73 1010.7
20260506030945 31 24 3.2 9.7 0.00 0.00 0.00 73 1010.5
20260506030443 30 119 4.8 11.3 0.00 0.00 0.00 74 1010.7
20260506025940 30 58 8.0 9.7 0.00 0.00 0.00 74 1010.7
20260506025437 30 60 3.2 6.4 0.00 0.00 0.00 74 1010.8
20260506024933 30 42 4.8 6.4 0.00 0.00 0.00 75 1010.7
20260506024430 30 54 3.2 9.7 0.00 0.00 0.00 75 1011.1
20260506023926 30 5 11.3 12.9 0.00 0.00 0.00 74 1010.9
20260506023423 31 72 1.6 9.7 0.00 0.00 0.00 74 1010.7
20260506022920 30 75 8.0 12.9 0.00 0.00 0.00 74 1010.7
20260506022418 30 30 4.8 11.3 0.00 0.00 0.00 76 1011.1
20260506021915 30 0 9.7 11.3 0.00 0.00 0.00 76 1010.8
20260506021413 30 2 6.4 12.9 0.00 0.00 0.00 77 1011.0
20260506020909 30 49 1.6 4.8 0.00 0.00 0.00 77 1010.9
20260506020407 30 38 9.7 11.3 0.00 0.00 0.00 76 1011.1
20260506015904 30 10 12.9 14.5 0.00 0.00 0.00 77 1010.8
20260506015402 30 66 3.2 6.4 0.00 0.00 0.00 77 1010.9
20260506014858 30 91 3.2 9.7 0.00 0.00 0.00 77 1010.8
20260506014355 30 73 8.0 14.5 0.00 0.00 0.00 78 1010.8
20260506013852 30 71 3.2 11.3 0.00 0.00 0.00 79 1010.7
20260506013350 29 20 3.2 4.8 0.00 0.00 0.00 80 1010.7
20260506012845 30 359 0.0 1.6 0.00 0.00 0.00 80 1010.5
20260506012343 30 17 3.2 9.7 0.00 0.00 0.00 80 1010.5
20260506011840 29 5 4.8 4.8 0.00 0.00 0.00 81 1010.7
20260506011336 29 19 3.2 4.8 0.00 0.00 0.00 81 1010.5
20260506010834 29 9 3.2 6.4 0.00 0.00 0.00 81 1010.5
20260506010332 29 35 1.6 3.2 0.00 0.00 0.00 81 1010.5
20260506005828 29 352 1.6 4.8 0.00 0.00 0.00 82 1010.6
20260506005325 28 357 0.0 1.6 0.00 0.00 0.00 82 1010.4
20260506004821 28 31 3.2 4.8 0.00 0.00 0.00 82 1010.3
20260506004319 28 1 0.0 4.8 0.00 0.00 0.00 82 1010.3
20260506003815 28 0 1.6 4.8 0.00 0.00 0.00 83 1010.3
20260506003312 28 33 3.2 9.7 0.00 0.00 0.00 83 1010.3
20260506002808 28 57 4.8 6.4 0.00 0.00 0.00 83 1010.2
20260506002306 28 19 1.6 9.7 0.00 0.00 0.00 83 1010.1
20260506001800 28 23 3.2 6.4 0.00 0.00 0.00 83 1010.0
20260506001258 28 21 0.0 4.8 0.00 0.00 0.00 84 1010.0
20260506000754 28 40 3.2 6.4 0.00 0.00 0.00 84 1009.8
20260506000254 28 40 3.2 4.8 0.00 0.00 0.00 84 1010.0
20260505235749 28 47 6.4 6.4 0.00 0.00 0.00 84 1009.8
20260505235246 28 8 1.6 3.2 0.00 0.00 0.00 84 1009.6
20260505234743 28 331 3.2 4.8 0.00 0.00 0.00 85 1009.6
20260505234241 27 32 3.2 6.4 0.00 0.00 0.00 85 1009.5
20260505233737 27 9 3.2 4.8 0.00 0.00 0.00 85 1009.6
20260505233235 27 350 4.8 4.8 0.00 0.00 0.00 85 1009.5
20260505232732 28 17 3.2 6.4 0.00 0.00 0.00 85 1009.5
20260505232229 28 338 3.2 6.4 0.00 0.00 0.00 86 1009.4
20260505231726 27 47 3.2 6.4 0.00 0.00 0.00 86 1009.2
20260505231225 27 57 3.2 4.8 0.00 0.00 0.00 86 1009.1
20260505230723 27 15 3.2 3.2 0.00 0.00 0.00 86 1009.2
20260505230219 27 8 1.6 3.2 0.00 0.00 0.00 87 1009.1
20260505225715 27 92 1.6 3.2 0.00 0.00 0.00 87 1009.0
20260505225212 27 94 3.2 4.8 0.00 0.00 0.00 87 1009.1
20260505224708 27 32 3.2 4.8 0.00 0.00 0.00 87 1008.9
20260505224206 27 66 1.6 3.2 0.00 0.00 0.00 87 1009.0
20260505223703 27 38 3.2 3.2 0.00 0.00 0.00 88 1008.9
20260505223159 27 41 3.2 4.8 0.00 0.00 0.00 88 1009.0
20260505222655 27 42 3.2 4.8 0.00 0.00 0.00 88 1008.8
20260505222151 27 24 3.2 4.8 0.00 0.00 0.00 88 1008.6
20260505221649 27 58 3.2 4.8 0.00 0.00 0.00 88 1008.7
20260505221145 27 28 1.6 4.8 0.00 0.00 0.00 88 1008.5
20260505220643 27 2 0.0 1.6 0.00 0.00 0.00 88 1008.5
20260505220140 27 21 1.6 4.8 0.00 0.00 0.00 88 1008.6
20260505215638 27 31 3.2 3.2 0.00 0.00 0.00 88 1008.6
20260505215136 27 25 1.6 4.8 0.00 0.00 0.00 88 1008.4
20260505214633 27 49 1.6 4.8 0.00 0.00 0.00 88 1008.5
20260505214130 27 19 0.0 6.4 0.00 0.00 0.00 88 1008.6
20260505213628 27 12 3.2 6.4 0.00 0.00 0.00 88 1008.5
20260505213124 27 25 4.8 6.4 0.00 0.00 0.00 88 1008.4
20260505212620 27 56 3.2 4.8 0.00 0.00 0.00 88 1008.5
20260505212118 27 65 3.2 4.8 0.00 0.00 0.00 88 1008.4
20260505211615 27 42 1.6 4.8 0.00 0.00 0.00 88 1008.3
20260505211112 27 331 1.6 1.6 0.00 0.00 0.00 88 1008.4
20260505210609 27 353 3.2 3.2 0.00 0.00 0.00 88 1008.3
20260505210106 27 354 3.2 4.8 0.00 0.00 0.00 88 1008.5
20260505205603 27 1 3.2 6.4 0.00 0.00 0.00 88 1008.4
20260505205101 27 333 3.2 4.8 0.00 0.00 0.00 88 1008.3
20260505204558 27 334 3.2 6.4 0.00 0.00 0.00 88 1008.4
20260505204055 27 341 4.8 6.4 0.00 0.00 0.00 88 1008.3
20260505203551 27 346 6.4 9.7 0.00 0.00 0.00 88 1008.2
20260505203049 27 345 6.4 6.4 0.00 0.00 0.00 88 1008.1
20260505202544 27 357 3.2 4.8 0.00 0.00 0.00 88 1008.2
20260505202040 27 336 4.8 6.4 0.00 0.00 0.00 88 1008.2
20260505201538 27 335 3.2 3.2 0.00 0.00 0.00 88 1008.0
20260505201036 27 327 1.6 1.6 0.00 0.00 0.00 88 1008.1
20260505200533 27 341 1.6 1.6 0.00 0.00 0.00 88 1008.2
20260505200030 27 353 1.6 1.6 0.00 0.00 0.00 88 1008.0
20260505195526 27 8 0.0 1.6 0.00 0.00 0.00 88 1008.2
20260505195023 27 335 0.0 1.6 0.00 0.00 0.00 88 1008.2
20260505194516 27 344 1.6 1.6 0.00 0.00 0.00 88 1008.2
20260505194015 27 332 0.0 1.6 0.00 0.00 0.00 88 1008.3
20260505193513 27 317 3.2 3.2 0.00 0.00 0.00 88 1008.3
20260505193010 27 345 3.2 3.2 0.00 0.00 0.00 88 1008.3
20260505192509 27 333 3.2 3.2 0.00 0.00 0.00 88 1008.2
20260505192006 27 7 0.0 1.6 0.00 0.00 0.00 88 1008.4
20260505191504 27 37 1.6 3.2 0.00 0.00 0.00 88 1008.2
20260505191002 27 12 0.0 3.2 0.00 0.00 0.00 88 1008.5
20260505190456 27 61 3.2 4.8 0.00 0.00 0.00 88 1008.4
20260505185952 27 27 0.0 3.2 0.00 0.00 0.00 88 1008.3
20260505185450 27 1 0.0 3.2 0.00 0.00 0.00 88 1008.5
20260505184945 27 15 1.6 3.2 0.00 0.00 0.00 88 1008.6
20260505184442 27 347 4.8 4.8 0.00 0.00 0.00 88 1008.8
20260505183939 27 340 1.6 3.2 0.00 0.00 0.00 88 1008.8
20260505183436 26 348 3.2 4.8 0.00 0.00 0.00 88 1008.6
20260505182933 27 346 4.8 6.4 0.00 0.00 0.00 88 1008.9
20260505182430 26 336 4.8 6.4 0.00 0.00 0.00 88 1008.7
20260505181926 26 6 3.2 4.8 0.00 0.00 0.00 88 1008.7
20260505181424 26 348 3.2 6.4 0.00 0.00 0.00 88 1008.9
20260505180920 26 354 8.0 11.3 0.00 0.00 0.00 88 1008.9
20260505180416 26 343 6.4 6.4 0.00 0.00 0.00 88 1009.0
20260505175913 26 342 4.8 4.8 0.00 0.00 0.00 88 1008.9
20260505175409 26 326 4.8 6.4 0.00 0.00 0.00 88 1008.9
20260505174906 26 333 3.2 3.2 0.00 0.00 0.00 88 1009.0
20260505174404 27 343 3.2 6.4 0.00 0.00 0.00 88 1009.1
20260505173859 27 339 3.2 4.8 0.00 0.00 0.00 88 1009.3
20260505173356 27 297 6.4 6.4 0.00 0.00 0.00 87 1009.4
20260505172853 27 295 6.4 6.4 0.00 0.00 0.00 87 1009.2
20260505172351 27 334 4.8 6.4 0.00 0.00 0.00 87 1009.3
20260505171850 27 337 3.2 4.8 0.00 0.00 0.00 86 1009.3
20260505171347 27 315 3.2 4.8 0.00 0.00 0.00 86 1009.3
20260505170844 28 293 4.8 6.4 0.00 0.00 0.00 85 1009.4
20260505170341 28 2 0.0 0.0 0.00 0.00 0.00 85 1009.5
20260505165836 28 54 3.2 3.2 0.00 0.71 0.71 85 1009.5
20260505165332 28 33 1.6 3.2 0.00 0.71 0.71 85 1009.7
20260505164828 28 42 1.6 3.2 0.00 0.71 0.71 85 1009.7
20260505164325 28 49 1.6 1.6 0.00 0.71 0.71 85 1009.7
20260505163823 28 48 1.6 3.2 0.00 0.71 0.71 85 1009.7
20260505163321 28 29 0.0 3.2 0.00 0.71 0.71 85 1009.9
20260505162814 28 34 1.6 3.2 0.00 0.71 0.71 85 1010.0
20260505162310 27 93 3.2 4.8 0.00 0.71 0.71 86 1009.9
20260505161808 27 15 0.0 3.2 0.00 0.71 0.71 86 1009.9
20260505161305 27 70 1.6 3.2 0.00 0.71 0.71 87 1009.7
20260505160802 27 355 0.0 1.6 0.00 0.71 0.71 87 1009.6
20260505160300 27 338 1.6 1.6 0.00 0.71 0.71 87 1009.7